Weather History for Dublin, VA

Change the Weather History Date:

Sunday, November 13, 2011

  Actual Average (KBCB) Record (KBCB)
Temperature  
Mean Temperature 48 °F 44 °F  
Max Temperature 60 °F 57 °F 70 °F (1985)
Min Temperature 35 °F 32 °F 15 °F (1983)
Degree Days  
Heating Degree Days 18 21  
Month to date heating degree days 244  
Since 1 July heating degree days 771  
Cooling Degree Days 0 0  
Month to date cooling degree days 0  
Year to date cooling degree days 573  
Moisture  
Dew Point 30 °F    
Average Humidity 53    
Maximum Humidity 81    
Minimum Humidity 29    
Precipitation  
Precipitation 0.00 in 0.09 in 1.32 in (1970)
Month to date precipitation 1.20  
Year to date precipitation 36.27  
Snow  
Snow 0.00 in - - ()
Month to date snowfall  
Since 1 July snowfall  
Since 1 September snowfall  
Snow Depth -    
Sea Level Pressure  
Sea Level Pressure 30.13 in    
Wind  
Wind Speed 2 mph (SSW)    
Max Wind Speed 13 mph    
Max Gust Speed 20 mph    
Visibility 10 miles    
Events      
T = Trace of Precipitation, MM = Missing Value Source: NWS Daily Summary

Daily Weather History Graph

Daily Weather History Graph

Search for Another Location

Airport:

Trip Planner

Search our weather history database for the weather conditions in past years. The results will help you decide how hot, cold, wet, or windy it might be!

Date:

Astronomy

Nov. 13, 2011 Rise Set
Actual Time 6:59 AM EST 5:14 PM EST
Civil Twilight 6:31 AM EST 5:41 PM EST
Nautical Twilight 6:00 AM EST 6:13 PM EST
Astronomical Twilight 5:29 AM EST 6:43 PM EST
Moon 7:24 PM EST (11/13) 9:28 AM EST (11/13)
Length of Visible Light 11h 10m
Length of Day
10h 15m
Waning Gibbous, 93% of the Moon is Illuminated
Nov 13
Waning Gibbous
Nov 18
Last Quarter
Nov 25
New
Dec 2
First Quarter
Dec 10
Full

Hourly Weather History & Observations

Time (EST) Temp. Windchill Dew Point Humidity Pressure Visibility Wind Dir Wind Speed Gust Speed Precip Events Conditions
12:15 AM 41.0 °F - 30.2 °F 65% 30.19 in 10.0 mi Calm Calm - N/A   Clear
12:35 AM 44.6 °F - 28.4 °F 53% 30.18 in 10.0 mi Calm Calm - N/A   Clear
12:55 AM 44.6 °F - 30.2 °F 57% 30.19 in 10.0 mi Calm Calm - N/A   Clear
1:15 AM 44.6 °F - 28.4 °F 53% 30.18 in 10.0 mi Calm Calm - N/A   Clear
1:35 AM 39.2 °F - 30.2 °F 70% 30.18 in 10.0 mi Calm Calm - N/A   Clear
1:55 AM 39.2 °F - 30.2 °F 70% 30.17 in 10.0 mi Calm Calm - N/A   Clear
2:15 AM 39.2 °F - 30.2 °F 70% 30.18 in 10.0 mi Calm Calm - N/A   Clear
2:35 AM 39.2 °F - 32.0 °F 75% 30.18 in 10.0 mi Calm Calm - N/A   Clear
3:15 AM 39.2 °F - 32.0 °F 75% 30.16 in 10.0 mi Calm Calm - N/A   Clear
3:35 AM 37.4 °F 34.9 °F 30.2 °F 75% 30.16 in 10.0 mi NW 3.5 mph - N/A   Clear
3:55 AM 35.6 °F - 30.2 °F 81% 30.15 in 10.0 mi Calm Calm - N/A   Clear
4:15 AM 37.4 °F - 30.2 °F 75% 30.15 in 10.0 mi Calm Calm - N/A   Clear
4:35 AM 35.6 °F - 30.2 °F 81% 30.15 in 10.0 mi Calm Calm - N/A   Clear
4:55 AM 35.6 °F 32.8 °F 30.2 °F 81% 30.16 in 10.0 mi West 3.5 mph - N/A   Clear
5:15 AM 35.6 °F - 30.2 °F 81% 30.16 in 10.0 mi Calm Calm - N/A   Clear
5:35 AM 37.4 °F - 30.2 °F 75% 30.16 in 10.0 mi Calm Calm - N/A   Clear
5:55 AM 35.6 °F - 30.2 °F 81% 30.16 in 10.0 mi Calm Calm - N/A   Clear
6:35 AM 37.4 °F - 30.2 °F 75% 30.16 in 10.0 mi Calm Calm - N/A   Clear
7:15 AM 37.4 °F - 30.2 °F 75% 30.17 in 10.0 mi Calm Calm - N/A   Clear
7:55 AM 37.4 °F - 30.2 °F 75% 30.18 in 10.0 mi Calm Calm - N/A   Clear
8:55 AM 44.6 °F - 35.6 °F 71% 30.18 in 10.0 mi Calm Calm - N/A   Clear
9:15 AM 48.2 °F - 33.8 °F 58% 30.18 in 10.0 mi Calm Calm - N/A   Clear
9:35 AM 50.0 °F - 30.2 °F 47% 30.18 in 10.0 mi Calm Calm - N/A   Clear
9:55 AM 51.8 °F - 30.2 °F 44% 30.19 in 10.0 mi SW 3.5 mph - N/A   Clear
10:15 AM 53.6 °F - 30.2 °F 41% 30.19 in 10.0 mi SW 3.5 mph - N/A   Clear
10:35 AM 53.6 °F - 30.2 °F 41% 30.18 in 10.0 mi Calm Calm - N/A   Clear
10:55 AM 55.4 °F - 26.6 °F 33% 30.17 in 10.0 mi SSW 5.8 mph - N/A   Clear
11:15 AM 55.4 °F - 30.2 °F 38% 30.16 in 10.0 mi SW 3.5 mph - N/A   Clear
11:35 AM 57.2 °F - 28.4 °F 33% 30.15 in 10.0 mi SSW 4.6 mph - N/A   Clear
11:55 AM 57.2 °F - 26.6 °F 31% 30.13 in 10.0 mi SW 4.6 mph - N/A   Clear
12:15 PM 57.2 °F - 32.0 °F 38% 30.12 in 10.0 mi Calm Calm - N/A   Scattered Clouds
12:35 PM 57.2 °F - 33.8 °F 41% 30.11 in 10.0 mi SSW 3.5 mph - N/A   Scattered Clouds
12:55 PM 60.8 °F - 28.4 °F 29% 30.10 in 10.0 mi South 6.9 mph - N/A   Clear
1:15 PM 60.8 °F - 30.2 °F 31% 30.09 in 10.0 mi South 12.7 mph - N/A   Clear
1:35 PM 59.0 °F - 28.4 °F 31% 30.08 in 10.0 mi South 9.2 mph - N/A   Clear
1:55 PM 59.0 °F - 28.4 °F 31% 30.07 in 10.0 mi South 9.2 mph 16.1 mph N/A   Clear
2:15 PM 57.2 °F - 28.4 °F 33% 30.08 in 10.0 mi South 9.2 mph - N/A   Clear
2:35 PM 57.2 °F - 28.4 °F 33% 30.08 in 10.0 mi SSW 6.9 mph - N/A   Clear
2:55 PM 57.2 °F - 28.4 °F 33% 30.07 in 10.0 mi South 6.9 mph - N/A   Clear
3:15 PM 57.2 °F - 24.8 °F 29% 30.07 in 10.0 mi South 8.1 mph - N/A   Clear
3:35 PM 55.4 °F - 26.6 °F 33% 30.08 in 10.0 mi SSW 4.6 mph - N/A   Clear
3:55 PM 55.4 °F - 26.6 °F 33% 30.09 in 10.0 mi South 4.6 mph - N/A   Clear
4:15 PM 55.4 °F - 26.6 °F 33% 30.09 in 10.0 mi South 4.6 mph - N/A   Clear
4:35 PM 53.6 °F - 26.6 °F 35% 30.07 in 10.0 mi South 5.8 mph - N/A   Clear
4:55 PM 55.4 °F - 26.6 °F 33% 30.08 in 10.0 mi South 9.2 mph - N/A   Clear
5:15 PM 53.6 °F - 26.6 °F 35% 30.08 in 10.0 mi SSW 9.2 mph - N/A   Clear
5:35 PM 51.8 °F - 28.4 °F 41% 30.09 in 10.0 mi SSW 4.6 mph - N/A   Clear
5:55 PM 50.0 °F - 28.4 °F 43% 30.09 in 10.0 mi SW 4.6 mph - N/A   Clear
6:15 PM 50.0 °F - 30.2 °F 47% 30.10 in 10.0 mi SSW 5.8 mph - N/A   Clear
6:35 PM 50.0 °F - 30.2 °F 47% 30.10 in 10.0 mi SSW 4.6 mph - N/A   Clear
6:55 PM 48.2 °F - 30.2 °F 50% 30.11 in 10.0 mi SSW 4.6 mph - N/A   Clear
7:15 PM 48.2 °F - 32.0 °F 54% 30.11 in 10.0 mi SSW 4.6 mph - N/A   Clear
7:35 PM 48.2 °F - 33.8 °F 58% 30.11 in 10.0 mi SW 6.9 mph - N/A   Clear
7:55 PM 48.2 °F - 33.8 °F 58% 30.12 in 10.0 mi SW 5.8 mph - N/A   Clear
8:15 PM 48.2 °F - 33.8 °F 58% 30.11 in 10.0 mi WSW 6.9 mph - N/A   Clear
8:35 PM 48.2 °F - 35.6 °F 62% 30.10 in 10.0 mi SW 5.8 mph - N/A   Clear
8:55 PM 48.2 °F - 37.4 °F 66% 30.09 in 10.0 mi SSW 9.2 mph - N/A   Clear
9:15 PM 51.8 °F - 37.4 °F 58% 30.09 in 10.0 mi SW 11.5 mph - N/A   Clear
9:55 PM 51.8 °F - 41.0 °F 67% 30.10 in 10.0 mi SW 11.5 mph 19.6 mph N/A   Clear
10:15 PM 51.8 °F - 42.8 °F 71% 30.09 in 10.0 mi SW 9.2 mph - N/A   Clear
10:35 PM 51.8 °F - 44.6 °F 76% 30.10 in 10.0 mi SW 9.2 mph - N/A   Clear
10:55 PM 51.8 °F - 44.6 °F 76% 30.09 in 10.0 mi SW 11.5 mph - N/A   Clear
11:15 PM 51.8 °F - 44.6 °F 76% 30.09 in 10.0 mi WSW 8.1 mph - N/A   Clear
11:35 PM 50.0 °F - 42.8 °F 76% 30.09 in 10.0 mi West 6.9 mph - N/A   Clear
11:55 PM 48.2 °F - 42.8 °F 82% 30.09 in 10.0 mi WSW 8.1 mph - N/A   Clear